{"data":{"norad_id":54051,"epoch":"2026-09-20T22:00:03.000096Z","epoch_age_seconds":50502,"freshness":"FRESH","line1":"1 54051U 22136A   26263.91670139  .00013393  00000+0  55246-3 0  9997","line2":"2 54051  53.1612 186.8680 0000985  73.7113 256.2497 15.24372412  5759","mean_motion":15.24372412,"eccentricity":9.85e-5,"inclination_deg":53.1612,"raan_deg":186.868,"arg_perigee_deg":73.7113,"mean_anomaly_deg":256.2497,"bstar":0.00055246,"rev_number":575,"period_min":94.465105027104,"perigee_km":491.9938317631,"apogee_km":493.34738086155,"semimajor_km":6870.8076063123,"source":"CELESTRAK","updated_at":"2026-09-21T09:00:33.075525Z"}}